Location: San Angelo State Park
(31.4666°N, 100.5360°W)
Time: 15:29:50
(UTC-06:00)

ISS - Visible Passes

Search period start: 18 November 2019 00:00
Search period end: 28 November 2019 00:00
Orbit: 412 x 421 km, 51.6° (Epoch: 19 November)

Date Brightness Start Highest point End Pass type
(mag) Time Alt. Az. Time Alt. Az. Time Alt. Az.
18 Nov -2.9 19:10:11 10° SSW 19:12:46 36° SSE 19:12:46 36° SSE visible
19 Nov -2.1 18:22:33 10° S 18:25:06 20° SE 18:26:55 14° E visible
19 Nov -0.8 19:58:48 10° W 19:59:51 17° W 19:59:51 17° W visible
20 Nov -3.1 19:10:01 10° WSW 19:13:15 49° NW 19:13:52 42° N visible
21 Nov -3.8 18:21:33 10° SW 18:24:52 79° SE 18:27:48 13° NE visible
22 Nov -1.4 19:11:03 10° W 19:13:22 17° NW 19:14:33 15° N visible
23 Nov -2.1 18:21:53 10° WSW 18:24:50 29° NW 18:27:48 10° NNE visible
25 Nov -1.1 18:23:45 10° NW 18:25:01 12° NNW 18:26:17 10° N visible
